Starlink 3559

operational
NORAD ID: 51860 Int'l Des: 2022-022 Owner: SPXS Country: US Constellation: starlink
LEOCIRCULAR

Über Starlink 3559

Beschreibung wird geladen...

Live-Position

3D-Globus wird geladen...

Nächste Überflüge

Höhenverlauf

Altitude vs Time

uPlot chart will show altitude changes over time

Zweizeiliger Elementsatz

1 51860U 22022J 25353.44551796 -.00000883 00000-0 -37403-4 0 9999
2 51860 53.2183 9.3510 0001348 90.1275 269.9872 15.08846225211000
Epoch: 19. Dez. 2025 • Age: 13 hours

Aktueller Status

Höhe 540.8 km
Geschwindigkeit 7.59 km/s
Subsatellitenpunkt -0.96°S, 73.63°W
Startdatum 3. März 2022
Alter 3.7 years
Typ internet

Technische Details

Klassifizierung Payload
Masse 297.00 kg
Trockenmasse 275.00 kg
Gesamtmasse 297.00 kg
Länge 0.20 m
Durchmesser 2.80 m
Spannweite 9.00 m
Form Box + pan
Hersteller SPXS
Bus-Typ Starlink
Phasenstatus In Orbit
Besitzer/Staat SPXS/US

Große Konstellationen

Loading constellations...